Wind_Speed
19 19 19 18 17 17 15 14 13 12 12 11 12 11 11 11 11 11 11 12 13 14 16 18 18 18 18 17 17 16 16 16 14 13 12 12 11 11 11 11 12 12 11 10
21 20 20 19 18 17 16 15 14 13 13 13 13 13 12 12 12 12 12 12 13 14 15 17 17 18 18 18 18 17 16 16 16 14 13 12 12 12 12 12 12 12 12 11
22 21 20 19 17 17 17 15 14 13 13 15 14 14 13 13 13 13 13 14 13 14 15 17 17 18 18 19 19 18 17 16 15 15 14 14 13 13 13 12 13 13 13 12
23 22 22 18 17 17 17 16 14 13 14 14 14 14 13 13 13 13 14 14 14 14 16 17 18 18 18 19 19 19 18 17 17 16 15 14 14 14 13 13 12 13 13 13
25 24 21 19 18 17 16 15 14 14 14 14 13 12 12 12 12 13 13 14 14 16 17 17 17 18 19 19 19 19 19 18 17 17 16 15 15 15 14 14 13 13 14 14
26 25 22 18 18 18 17 16 15 15 14 13 13 11 11 12 12 12 13 14 14 16 17 17 18 18 19 19 19 19 18 18 18 18 18 17 16 16 16 15 15 15 15 15
27 26 22 19 19 18 18 15 16 16 15 14 13 13 13 13 13 13 13 14 15 17 17 17 18 18 19 19 20 20 19 18 18 18 18 17 17 17 17 17 16 16 16 16
28 26 22 20 19 19 17 17 17 16 15 14 13 13 13 13 13 13 14 15 15 17 17 17 17 18 18 19 20 19 19 18 18 18 17 17 17 17 17 17 17 17 17 16
28 26 23 22 21 20 19 19 18 17 16 15 14 14 14 14 14 14 14 15 15 16 17 17 17 17 18 18 18 18 18 18 18 18 17 17 17 17 18 17 17 17 18 17
29 27 26 24 23 23 21 20 20 19 18 16 15 14 14 15 15 15 14 15 15 16 16 17 17 17 18 18 18 19 18 18 19 18 17 18 18 18 18 18 18 18 18 18
29 27 27 26 25 24 23 22 21 20 19 18 16 15 15 15 15 16 15 15 15 15 16 16 16 17 17 17 16 16 17 17 18 17 17 17 17 17 18 19 19 19 19 19
29 28 28 27 25 25 24 23 22 21 20 19 17 16 16 15 15 15 16 16 15 15 16 16 16 16 17 17 17 16 16 16 16 17 17 18 17 18 19 18 18 18 18 18
30 29 28 27 26 25 24 23 23 22 21 19 18 18 17 16 16 16 16 16 16 16 17 17 17 17 17 17 17 16 16 16 16 17 17 17 18 18 18 19 19 18 19 19
31 30 28 27 27 26 24 24 24 22 22 21 19 18 17 16 16 17 17 18 17 17 17 18 18 18 18 17 17 17 17 17 17 18 18 18 18 19 19 19 20 20 20 21
31 30 29 28 28 27 25 25 24 23 23 22 20 19 19 17 16 17 17 18 18 18 18 18 18 19 19 19 19 19 19 18 18 18 18 18 18 19 19 20 20 21 22 22
31 31 31 30 29 28 26 25 25 24 23 22 21 21 20 18 17 17 18 19 19 19 19 19 19 19 19 19 19 19 19 19 19 18 18 18 19 19 20 20 21 22 23 23
31 31 31 30 29 28 27 27 27 25 24 24 23 22 21 20 19 18 18 19 19 19 20 20 20 20 19 19 19 19 18 18 19 19 19 19 20 20 21 21 22 23 24 25
31 32 32 32 30 29 28 28 28 27 26 25 25 24 23 21 20 20 19 19 20 20 20 21 21 21 21 20 20 20 20 20 20 20 21 21 21 22 22 23 24 24 25 26
32 32 32 32 31 30 30 29 29 28 28 27 26 26 24 23 22 22 21 21 21 21 21 21 21 21 21 21 21 21 21 21 21 22 22 23 23 23 24 25 26 27 28 29
31 33 32 32 31 31 31 30 30 29 29 28 27 27 26 25 24 24 23 23 23 23 22 22 22 22 22 22 22 22 22 22 23 23 23 24 25 25 26 27 28 28 29 30
31 32 32 32 32 31 31 31 30 30 29 29 29 28 27 26 27 25 24 24 24 24 24 24 23 23 22 22 22 22 23 23 24 24 25 26 26 26 27 28 28 29 30 31
31 31 32 31 31 31 31 31 31 31 31 30 30 29 28 28 27 26 25 25 25 25 25 25 24 23 23 23 23 24 24 24 25 26 26 27 27 27 28 29 30 31 32 32
30 31 31 31 31 31 31 31 32 31 31 30 30 30 29 29 28 27 26 26 26 27 27 26 26 26 26 26 25 25 26 26 27 27 28 28 29 29 30 31 32 33 33 34
31 31 31 31 31 30 30 31 31 31 31 30 30 31 31 30 30 29 28 28 28 28 28 28 27 27 27 27 27 28 28 28 29 29 29 30 30 31 32 33 33 33 34 35
30 30 30 31 31 31 31 31 30 30 31 31 31 31 31 31 31 30 30 30 30 30 29 29 29 29 28 28 28 29 29 29 29 30 31 32 32 33 33 33 34 34 34 35
30 30 30 30 30 31 31 31 31 30 30 31 32 32 32 32 31 31 31 31 31 31 30 30 30 30 30 30 29 29 29 29 30 30 31 31 32 33 33 34 35 35 36 37
31 31 30 30 30 31 31 32 32 32 32 32 32 32 32 32 32 32 32 32 31 31 31 32 32 32 31 30 30 30 31 31 32 32 32 33 33 34 34 35 35 36 37 37
Wind_Direction
242 244 245 246 247 249 253 258 254 253 252 251 249 247 249 249 249 243 239 230 224 222 215 212 213 212 212 212 213 211 212 211 211 211 212 215 221 226 231 233 235 239 243 246
239 242 244 244 244 245 249 251 249 248 248 248 246 246 248 250 248 244 241 236 228 221 215 212 212 212 212 212 214 215 215 215 214 215 217 221 226 230 234 236 239 242 245 248
239 241 243 243 244 245 247 249 249 250 249 248 248 248 247 247 245 239 239 234 229 221 216 213 213 213 213 214 216 216 216 217 217 218 222 227 232 236 237 240 243 245 246 248
240 238 241 242 242 244 245 245 246 247 247 249 247 246 244 244 242 237 237 235 230 226 223 219 218 218 219 219 221 221 220 221 222 222 226 231 234 237 239 243 246 247 248 251
238 239 240 241 243 244 245 243 245 244 245 245 244 241 240 244 244 237 235 236 234 231 228 226 223 222 221 221 223 224 224 225 227 228 230 234 237 240 242 246 248 250 252 254
237 238 239 239 241 242 242 240 241 242 243 242 239 237 237 239 241 239 234 235 236 234 231 230 227 226 225 224 225 225 226 228 230 232 234 238 240 240 243 246 251 253 253 256
236 237 235 234 237 239 239 238 239 241 242 241 238 236 235 237 239 239 237 236 236 234 231 231 228 227 226 227 226 226 228 230 232 234 238 241 242 243 244 247 252 254 256 259
234 234 232 233 235 236 237 236 237 238 240 239 236 237 239 239 239 240 240 238 236 234 231 230 228 227 227 227 227 228 229 231 233 235 238 241 245 245 246 248 252 254 258 262
233 233 232 233 233 233 234 235 235 236 237 237 237 240 241 240 238 239 238 235 234 233 230 228 227 226 228 227 226 228 230 232 235 238 240 242 245 247 251 253 255 256 258 262
231 232 232 232 232 231 232 234 234 235 236 237 239 240 241 239 237 237 235 233 231 231 229 227 227 226 227 226 227 229 230 231 235 239 243 246 247 250 252 253 256 258 260 263
230 229 229 230 231 230 230 231 232 233 235 236 239 239 239 240 239 237 234 230 228 227 225 225 228 226 225 225 228 230 231 235 239 242 243 244 247 248 250 252 254 257 260 265
228 227 228 228 229 230 230 232 232 231 233 236 237 236 237 239 239 236 232 229 226 224 224 225 226 228 227 229 232 235 238 239 241 243 244 245 247 249 252 254 255 257 261 265
225 225 226 227 228 229 230 230 230 229 230 234 235 234 236 237 236 233 230 230 229 228 228 228 229 229 228 230 233 236 240 243 244 244 247 249 251 253 253 254 256 259 263 266
225 224 225 226 226 226 226 227 227 228 230 233 234 234 234 236 236 232 229 230 231 230 231 231 230 230 231 233 234 237 242 244 244 245 249 252 253 254 255 257 259 262 265 269
225 225 225 226 226 226 224 225 226 228 229 231 233 233 233 234 234 232 230 230 230 231 233 233 232 233 235 238 239 240 242 244 245 247 251 253 253 254 256 260 263 266 269 272
224 225 224 225 224 224 223 223 224 226 228 229 231 232 232 233 234 234 232 230 232 234 234 233 232 235 237 238 239 241 245 247 247 250 253 256 257 257 259 262 266 269 272 275
225 225 225 224 223 223 223 223 223 225 226 227 229 232 233 234 235 236 235 234 234 235 235 234 235 237 239 242 243 245 247 249 251 252 253 256 259 261 264 267 270 272 275 278
224 224 225 224 225 225 225 226 227 227 228 230 230 232 234 235 236 236 236 237 237 237 238 239 241 241 243 245 246 248 250 252 252 253 255 257 260 263 267 269 272 275 277 280
224 224 225 226 226 226 226 227 229 229 229 231 231 231 233 234 235 236 237 238 239 240 241 241 242 243 245 246 247 248 252 253 254 256 258 260 263 266 269 272 274 276 279 281
225 224 225 226 226 227 227 229 229 230 231 231 230 231 233 235 237 239 241 242 242 243 243 243 242 244 245 246 248 250 252 255 258 259 262 264 267 270 272 274 276 278 279 281
226 226 227 228 228 228 228 228 230 232 232 232 231 232 235 238 239 241 243 244 244 244 244 244 245 246 248 250 252 254 256 259 260 261 264 267 270 272 273 276 277 279 281 284
225 226 226 227 228 229 229 229 230 233 233 233 234 234 236 237 238 239 241 243 244 244 245 246 247 250 253 254 256 258 259 261 262 264 266 269 270 273 275 277 280 282 284 286
226 226 226 227 228 228 228 229 230 231 232 232 233 234 235 236 238 240 241 243 245 246 246 248 251 254 256 256 257 259 260 262 264 266 268 270 272 275 278 280 282 283 285 286
226 227 226 227 227 227 228 229 229 230 232 232 233 233 234 236 239 240 241 243 245 246 248 251 253 255 257 257 257 259 261 263 265 267 269 271 273 276 279 281 283 284 286 287
226 226 226 226 226 228 229 229 230 231 233 234 235 235 235 238 241 243 244 245 246 247 250 252 254 255 256 257 259 261 263 264 266 268 270 272 274 277 279 281 283 286 287 289
227 228 228 228 228 230 231 232 233 235 236 236 237 237 238 239 241 245 246 246 247 248 249 251 253 255 257 259 261 262 263 265 268 269 271 273 275 277 279 281 284 286 288 289
228 230 230 230 231 232 233 234 236 236 237 238 238 238 239 241 243 245 246 246 248 249 249 251 254 256 258 259 261 263 265 268 270 271 273 275 277 279 281 283 285 286 288 289
Height
5794 5795 5797 5799 5800 5801 5802 5804 5805 5806 5807 5807 5807 5808 5809 5809 5810 5811 5812 5813 5815 5817 5819 5821 5824 5827 5830 5833 5835 5838 5840 5843 5845 5847 5850 5852 5853 5855 5856 5858 5859 5860 5861 5861
5789 5791 5792 5794 5796 5798 5799 5800 5801 5802 5804 5804 5804 5805 5806 5807 5808 5809 5810 5811 5813 5815 5817 5819 5822 5825 5827 5830 5833 5836 5838 5840 5843 5845 5848 5850 5851 5853 5854 5856 5857 5858 5859 5859
5784 5786 5788 5790 5793 5794 5795 5797 5798 5799 5801 5800 5801 5802 5803 5804 5805 5806 5807 5809 5811 5812 5814 5817 5820 5822 5825 5828 5831 5833 5836 5838 5840 5843 5845 5847 5849 5851 5852 5853 5854 5855 5856 5856
5779 5782 5783 5789 5789 5790 5791 5793 5795 5796 5797 5797 5798 5799 5800 5801 5802 5803 5805 5807 5808 5810 5812 5814 5817 5819 5822 5824 5827 5830 5833 5835 5838 5840 5842 5844 5846 5848 5849 5850 5851 5852 5853 5854
5773 5776 5779 5783 5785 5786 5788 5790 5791 5792 5793 5794 5795 5796 5797 5798 5799 5801 5802 5804 5805 5807 5809 5811 5813 5816 5819 5822 5825 5828 5830 5833 5835 5837 5839 5841 5843 5844 5846 5847 5848 5849 5850 5851
5768 5771 5774 5780 5781 5781 5784 5786 5788 5788 5790 5791 5792 5794 5795 5795 5796 5798 5799 5801 5802 5804 5806 5808 5810 5813 5816 5818 5821 5824 5827 5829 5831 5834 5836 5838 5839 5841 5842 5844 5845 5846 5846 5847
5762 5765 5770 5774 5776 5778 5781 5784 5784 5785 5786 5787 5789 5790 5792 5792 5793 5794 5796 5797 5799 5800 5802 5804 5807 5809 5812 5815 5818 5821 5823 5825 5828 5830 5832 5834 5836 5837 5839 5840 5841 5842 5843 5844
5756 5760 5767 5769 5771 5774 5777 5778 5780 5781 5783 5784 5785 5786 5788 5789 5790 5791 5793 5794 5795 5797 5799 5801 5803 5806 5809 5811 5814 5816 5819 5821 5824 5826 5828 5830 5832 5833 5835 5836 5837 5838 5839 5840
5752 5758 5761 5763 5766 5769 5771 5773 5775 5777 5779 5780 5782 5783 5784 5785 5786 5788 5789 5790 5792 5793 5796 5798 5800 5803 5805 5808 5810 5813 5815 5817 5820 5822 5824 5826 5827 5829 5831 5832 5833 5834 5835 5836
5745 5750 5754 5757 5760 5763 5766 5769 5771 5773 5775 5777 5778 5779 5780 5782 5783 5784 5785 5787 5788 5790 5792 5795 5797 5799 5802 5804 5807 5809 5811 5814 5816 5818 5820 5821 5823 5825 5826 5828 5829 5830 5831 5831
5739 5744 5747 5751 5754 5757 5761 5763 5766 5768 5770 5772 5774 5775 5777 5778 5779 5781 5782 5783 5785 5787 5789 5792 5794 5796 5798 5801 5803 5805 5807 5810 5812 5814 5815 5817 5819 5820 5822 5823 5824 5825 5826 5826
5733 5738 5741 5745 5748 5752 5755 5758 5761 5763 5766 5768 5770 5771 5773 5774 5775 5777 5779 5780 5782 5784 5786 5789 5791 5793 5795 5797 5800 5802 5804 5806 5808 5809 5811 5813 5814 5816 5817 5818 5819 5820 5821 5821
5726 5731 5735 5739 5743 5746 5749 5753 5756 5758 5761 5763 5765 5767 5768 5770 5772 5773 5775 5777 5779 5781 5783 5785 5787 5789 5792 5794 5796 5798 5800 5801 5803 5805 5806 5808 5810 5811 5812 5813 5814 5815 5815 5816
5719 5724 5728 5733 5736 5740 5743 5747 5750 5753 5756 5758 5760 5762 5764 5766 5768 5769 5771 5773 5775 5777 5779 5781 5783 5785 5788 5789 5792 5794 5796 5797 5799 5800 5802 5803 5804 5806 5807 5808 5809 5809 5810 5810
5712 5717 5722 5726 5730 5734 5737 5741 5744 5747 5750 5753 5756 5758 5760 5762 5763 5765 5767 5769 5771 5773 5775 5777 5779 5781 5783 5785 5787 5789 5791 5792 5794 5795 5797 5798 5799 5800 5801 5802 5803 5803 5803 5803
5705 5710 5714 5719 5723 5727 5731 5735 5738 5742 5745 5748 5750 5753 5755 5757 5759 5761 5763 5764 5767 5769 5771 5773 5775 5777 5779 5780 5782 5784 5786 5787 5789 5790 5792 5793 5794 5795 5796 5796 5797 5797 5797 5797
5698 5703 5708 5713 5717 5721 5725 5729 5733 5736 5739 5742 5745 5748 5750 5752 5754 5756 5758 5760 5762 5764 5766 5768 5770 5772 5774 5776 5777 5779 5781 5782 5784 5785 5786 5788 5788 5789 5790 5790 5790 5790 5790 5790
5691 5696 5701 5706 5710 5715 5719 5723 5727 5730 5733 5736 5739 5742 5745 5747 5749 5751 5753 5755 5757 5759 5761 5763 5765 5767 5769 5770 5772 5774 5775 5777 5778 5779 5781 5782 5782 5783 5783 5784 5784 5783 5783 5782
5684 5689 5694 5698 5703 5707 5712 5716 5720 5723 5727 5730 5733 5736 5739 5741 5743 5745 5747 5749 5752 5754 5756 5758 5759 5761 5763 5765 5766 5768 5769 5770 5772 5773 5774 5775 5776 5776 5777 5776 5776 5776 5775 5774
5677 5681 5686 5691 5695 5699 5704 5708 5712 5716 5720 5723 5726 5729 5732 5735 5737 5739 5741 5744 5746 5748 5750 5752 5753 5755 5757 5758 5760 5762 5763 5764 5765 5767 5768 5768 5769 5769 5769 5769 5768 5768 5767 5765
5670 5674 5679 5683 5687 5692 5696 5700 5705 5708 5712 5716 5719 5722 5725 5728 5730 5733 5735 5737 5739 5741 5743 5745 5747 5749 5751 5752 5754 5755 5757 5758 5759 5760 5760 5761 5761 5761 5761 5761 5760 5759 5758 5756
5662 5667 5671 5675 5680 5684 5688 5692 5696 5700 5704 5708 5712 5715 5718 5721 5723 5726 5728 5730 5732 5734 5736 5738 5740 5742 5744 5746 5747 5748 5750 5751 5751 5752 5753 5753 5753 5753 5752 5752 5751 5750 5748 5746
5655 5659 5664 5668 5672 5676 5680 5684 5688 5692 5696 5700 5703 5707 5710 5713 5716 5718 5721 5723 5725 5727 5729 5731 5733 5735 5737 5738 5740 5741 5742 5743 5743 5744 5744 5744 5744 5744 5743 5742 5741 5740 5738 5737
5648 5652 5657 5661 5665 5668 5673 5676 5680 5684 5688 5691 5695 5698 5702 5705 5708 5710 5713 5715 5717 5720 5722 5724 5726 5728 5729 5731 5732 5733 5733 5734 5735 5735 5735 5735 5735 5735 5734 5733 5731 5730 5728 5726
5641 5646 5650 5654 5658 5662 5665 5669 5673 5676 5680 5684 5687 5690 5694 5697 5700 5702 5705 5707 5709 5711 5714 5716 5718 5720 5721 5722 5724 5724 5725 5725 5726 5726 5726 5726 5726 5725 5724 5722 5721 5719 5718 5715
5635 5639 5643 5647 5651 5654 5658 5662 5665 5669 5672 5676 5679 5682 5685 5688 5691 5694 5696 5698 5701 5703 5705 5707 5709 5711 5712 5714 5715 5715 5716 5716 5716 5716 5716 5716 5715 5714 5713 5712 5711 5709 5707 5704
5628 5631 5635 5639 5642 5646 5650 5653 5657 5660 5664 5667 5670 5673 5676 5679 5682 5685 5688 5690 5692 5694 5696 5698 5700 5702 5703 5704 5705 5706 5706 5707 5707 5707 5706 5706 5705 5704 5703 5701 5700 5698 5695 5693